TimeEDT,TemperatureF,Dew PointF,Humidity,Sea Level PressureIn,VisibilityMPH,Wind Direction,Wind SpeedMPH,Gust SpeedMPH,PrecipitationIn,Events,Conditions,WindDirDegrees,DateUTC
12:15 AM,71.6,71.6,100,30.18,7.0,Calm,Calm,-,N/A,,Scattered Clouds,0,2012-10-05 04:15:00
12:35 AM,71.6,71.6,100,30.19,7.0,Calm,Calm,-,N/A,,Mostly Cloudy,0,2012-10-05 04:35:00
12:55 AM,71.6,71.6,100,30.17,7.0,Calm,Calm,-,N/A,,Overcast,0,2012-10-05 04:55:00
1:15 AM,71.6,71.6,100,30.16,10.0,Calm,Calm,-,N/A,,Mostly Cloudy,0,2012-10-05 05:15:00
1:35 AM,71.6,71.6,100,30.16,7.0,Calm,Calm,-,N/A,,Scattered Clouds,0,2012-10-05 05:35:00
1:55 AM,71.6,71.6,100,30.15,10.0,North,3.5,-,N/A,,Clear,10,2012-10-05 05:55:00
2:15 AM,71.6,71.6,100,30.15,10.0,Calm,Calm,-,N/A,,Clear,0,2012-10-05 06:15:00
2:35 AM,71.6,71.6,100,30.15,7.0,Calm,Calm,-,N/A,,Clear,0,2012-10-05 06:35:00
2:55 AM,71.6,71.6,100,30.15,7.0,Calm,Calm,-,N/A,,Clear,0,2012-10-05 06:55:00
3:15 AM,71.6,71.6,100,30.14,7.0,Calm,Calm,-,N/A,,Clear,0,2012-10-05 07:15:00
3:35 AM,71.6,71.6,100,30.15,7.0,Calm,Calm,-,N/A,,Clear,0,2012-10-05 07:35:00
3:55 AM,71.6,71.6,100,30.14,5.0,Calm,Calm,-,N/A,,Clear,0,2012-10-05 07:55:00
4:15 AM,69.8,69.8,100,30.14,4.0,Calm,Calm,-,N/A,,Mostly Cloudy,0,2012-10-05 08:15:00
4:35 AM,69.8,69.8,100,30.14,4.0,Calm,Calm,-,N/A,,Overcast,0,2012-10-05 08:35:00
4:55 AM,69.8,69.8,100,30.14,4.0,Calm,Calm,-,N/A,,Overcast,0,2012-10-05 08:55:00
5:15 AM,69.8,69.8,100,30.14,5.0,Calm,Calm,-,N/A,,Overcast,0,2012-10-05 09:15:00
5:35 AM,71.6,71.6,100,30.15,7.0,Calm,Calm,-,N/A,,Overcast,0,2012-10-05 09:35:00
5:55 AM,71.6,71.6,100,30.14,7.0,Calm,Calm,-,N/A,,Overcast,0,2012-10-05 09:55:00
6:15 AM,71.6,71.6,100,30.14,7.0,Calm,Calm,-,N/A,,Scattered Clouds,0,2012-10-05 10:15:00
6:35 AM,71.6,71.6,100,30.14,7.0,Calm,Calm,-,N/A,,Clear,0,2012-10-05 10:35:00
6:55 AM,71.6,71.6,100,30.14,7.0,North,3.5,-,N/A,,Clear,10,2012-10-05 10:55:00
7:15 AM,71.6,71.6,100,30.14,10.0,North,4.6,-,N/A,,Clear,10,2012-10-05 11:15:00
7:35 AM,71.6,71.6,100,30.13,10.0,North,5.8,-,N/A,,Clear,360,2012-10-05 11:35:00
7:55 AM,71.6,71.6,100,30.14,10.0,NNE,3.5,-,N/A,,Clear,30,2012-10-05 11:55:00
8:15 AM,71.6,71.6,100,30.14,10.0,NE,3.5,-,N/A,,Clear,40,2012-10-05 12:15:00
8:35 AM,71.6,71.6,100,30.14,7.0,ENE,3.5,-,N/A,,Clear,60,2012-10-05 12:35:00
8:55 AM,73.4,71.6,94,30.15,10.0,ENE,3.5,-,N/A,,Clear,60,2012-10-05 12:55:00
9:15 AM,75.2,73.4,94,30.14,10.0,ENE,4.6,-,N/A,,Clear,70,2012-10-05 13:15:00
9:35 AM,73.4,71.6,94,30.16,10.0,ENE,3.5,-,N/A,,Clear,60,2012-10-05 13:35:00
9:55 AM,75.2,71.6,89,30.16,10.0,NE,5.8,-,N/A,,Mostly Cloudy,50,2012-10-05 13:55:00
10:15 AM,77.0,73.4,89,30.15,10.0,ENE,6.9,-,N/A,,Overcast,70,2012-10-05 14:15:00
10:35 AM,78.8,73.4,83,30.16,10.0,NNE,5.8,-,N/A,,Overcast,20,2012-10-05 14:35:00
10:55 AM,78.8,73.4,83,30.15,10.0,ENE,6.9,-,N/A,,Overcast,70,2012-10-05 14:55:00
11:15 AM,78.8,71.6,78,30.15,10.0,NE,6.9,-,N/A,,Overcast,40,2012-10-05 15:15:00
11:35 AM,80.6,73.4,79,30.14,10.0,NNE,8.1,-,N/A,,Overcast,20,2012-10-05 15:35:00
11:55 AM,80.6,73.4,79,30.14,10.0,ENE,6.9,-,N/A,,Overcast,70,2012-10-05 15:55:00
12:15 PM,80.6,73.4,79,30.14,10.0,ENE,4.6,-,N/A,,Overcast,70,2012-10-05 16:15:00
12:35 PM,82.4,73.4,74,30.13,10.0,NE,4.6,-,N/A,,Overcast,40,2012-10-05 16:35:00
12:55 PM,82.4,71.6,70,30.12,10.0,ENE,4.6,-,N/A,,Mostly Cloudy,60,2012-10-05 16:55:00
1:15 PM,82.4,73.4,74,30.11,10.0,North,3.5,-,N/A,,Scattered Clouds,10,2012-10-05 17:15:00
1:35 PM,82.4,73.4,74,30.10,10.0,ESE,4.6,-,N/A,,Scattered Clouds,110,2012-10-05 17:35:00
1:55 PM,82.4,73.4,74,30.09,10.0,NNE,4.6,-,N/A,,Mostly Cloudy,20,2012-10-05 17:55:00
2:15 PM,82.4,73.4,74,30.09,10.0,NE,3.5,-,N/A,,Overcast,40,2012-10-05 18:15:00
2:35 PM,86.0,73.4,66,30.08,10.0,NNE,3.5,-,N/A,,Mostly Cloudy,30,2012-10-05 18:35:00
2:55 PM,86.0,73.4,66,30.07,10.0,NNE,4.6,-,N/A,,Scattered Clouds,30,2012-10-05 18:55:00
3:15 PM,86.0,73.4,66,30.06,10.0,NNE,4.6,-,N/A,,Mostly Cloudy,30,2012-10-05 19:15:00
3:35 PM,82.4,73.4,74,30.05,10.0,Calm,Calm,-,N/A,Rain,Light Rain,0,2012-10-05 19:35:00
4:15 PM,82.4,73.4,74,30.03,10.0,East,5.8,-,N/A,,Clear,80,2012-10-05 20:15:00
4:55 PM,82.4,73.4,74,30.03,10.0,ENE,4.6,-,N/A,,Scattered Clouds,70,2012-10-05 20:55:00
5:15 PM,82.4,73.4,74,30.03,10.0,East,4.6,-,N/A,,Clear,80,2012-10-05 21:15:00
5:35 PM,82.4,73.4,74,30.03,10.0,East,4.6,-,N/A,,Clear,90,2012-10-05 21:35:00
5:55 PM,80.6,75.2,84,30.02,10.0,East,5.8,-,N/A,,Scattered Clouds,80,2012-10-05 21:55:00
6:15 PM,78.8,73.4,83,30.03,10.0,ESE,5.8,-,N/A,,Mostly Cloudy,120,2012-10-05 22:15:00
6:35 PM,78.8,73.4,83,30.02,10.0,Calm,Calm,-,N/A,,Mostly Cloudy,0,2012-10-05 22:35:00
6:55 PM,77.0,73.4,89,30.03,10.0,SE,4.6,-,N/A,,Clear,140,2012-10-05 22:55:00
7:15 PM,77.0,73.4,89,30.04,10.0,Calm,Calm,-,N/A,,Scattered Clouds,0,2012-10-05 23:15:00
7:35 PM,77.0,73.4,89,30.04,10.0,SE,3.5,-,N/A,,Mostly Cloudy,140,2012-10-05 23:35:00
7:55 PM,77.0,73.4,89,30.04,10.0,ESE,3.5,-,N/A,,Overcast,120,2012-10-05 23:55:00
8:15 PM,75.2,73.4,94,30.06,10.0,Calm,Calm,-,N/A,Thunderstorm,Thunderstorm,0,2012-10-06 00:15:00
8:35 PM,75.2,73.4,94,30.06,10.0,Calm,Calm,-,N/A,Rain-Thunderstorm,Light Thunderstorms and Rain,0,2012-10-06 00:35:00
8:55 PM,73.4,73.4,100,30.05,7.0,Calm,Calm,-,N/A,,Light Drizzle,0,2012-10-06 00:55:00
9:15 PM,73.4,73.4,100,30.04,5.0,Calm,Calm,-,N/A,Rain,Light Rain,0,2012-10-06 01:15:00
9:35 PM,73.4,73.4,100,30.04,4.0,Calm,Calm,-,N/A,Rain,Light Rain,0,2012-10-06 01:35:00
9:55 PM,73.4,73.4,100,30.05,4.0,Calm,Calm,-,N/A,,Scattered Clouds,0,2012-10-06 01:55:00
10:15 PM,73.4,73.4,100,30.05,4.0,Calm,Calm,-,N/A,,Clear,0,2012-10-06 02:15:00
10:35 PM,71.6,71.6,100,30.05,3.0,Calm,Calm,-,N/A,,Clear,0,2012-10-06 02:35:00
10:55 PM,71.6,71.6,100,30.04,3.0,Calm,Calm,-,N/A,,Clear,0,2012-10-06 02:55:00
11:15 PM,71.6,71.6,100,30.04,1.8,Calm,Calm,-,N/A,,Mist,0,2012-10-06 03:15:00
11:35 PM,71.6,71.6,100,30.04,3.0,Calm,Calm,-,N/A,,Clear,0,2012-10-06 03:35:00
11:55 PM,71.6,71.6,100,30.04,4.0,Calm,Calm,-,N/A,,Clear,0,2012-10-06 03:55:00